866  
ASUS42 KCHS 310812  
RWRCHS  
 
REGIONAL WEATHER ROUNDUP  
NATIONAL WEATHER SERVICE CHARLESTON SC  
400 AM EDT SUN MAY 31 2020  
 
NOTE: "FAIR" INDICATES FEW OR NO CLOUDS BELOW 12,000 FEET WITH NO  
SIGNIFICANT WEATHER AND/OR S TO VISIBILITY
.  
 
NOT ALL STATIONS ARE QUALITY CONTROLLED. USE DATA WITH CAUTION,  
ESPECIALLY DEWPOINT OBSERVATIONS.  
 
SCZ027-030-031-034>040-042>050-310900-   
..SOUTHEAST SOUTH CAROLINA
 
 
 
CITY SKY/WX TMP DP RH WIND PRES REMARKS
 
N CHARLESTON PTCLDY 73 71 93 N6 29.95F  
WATERFRONT PRK N/A 76 75 96 CALM 29.79F  
MOUNT PLEASANT CLOUDY 73 73 100 CALM 29.94F FOG  
JOHNS ISLAND PTSUNNY 75 75 100 CALM 29.95S  
PINOPOLIS N/A 73 70 88 CALM 29.88F  
MONCKS CORNER FAIR 70 70 100 CALM 29.95F FOG  
SUMMERVILLE CLOUDY 72 72 100 CALM 29.95S FOG  
BEAUFORT MCAS CLEAR 74 70 87 CALM 29.96S  
BEAUFORT ARPT FAIR 73 72 94 MISG 29.96S  
HILTON HEAD IS CLEAR 75 72 88 VRB6 29.96F  
WALTERBORO SUNNY 70 70 100 CALM 29.97S  
ALLENDALE FAIR 72 72 100 CALM 29.96S  
   
..SOUTHERN MIDLANDS AND PEE DEE
 
 
 
CITY SKY/WX TMP DP RH WIND PRES REMARKS
 
GEORGETOWN PTSUNNY 72 70 94 W6 29.95S  
KINGSTREE FAIR 72 70 94 CALM 29.95F  
ORANGEBURG CLEAR 71 68 90 CALM 29.97S FOG  
BARNWELL FAIR 68 68 100 CALM 29.97F  
AIKEN FAIR 67 65 91 CALM 29.99S  
MANNING FAIR 72 72 100 CALM 29.95F  
COLUMBIA CLEAR 69 66 90 CALM 29.97R  
SUMTER CLEAR 70 68 93 CALM 29.96S  
FLORENCE PTCLDY 73 70 90 CALM 29.96F  
MYRTLE BEACH CLEAR 73 72 96 W8 29.94F  
N MYRTLE BEACH CLEAR 72 71 97 VRB3 29.93F  
 

 
 
GAZ063-065-086>088-099>101-113>116-118-119-134>141-150-310900-   
..SOUTHEAST GEORGIA
 
 
 
CITY SKY/WX TMP DP RH WIND PRES REMARKS
 
SAVANNAH ARPT PTCLDY 73 71 93 W5 29.96F  
HUNTER AAF MOCLDY 73 69 87 W6 29.93F  
FORT STEWART CLOUDY 75 70 85 NW3 29.94F  
STATESBORO CLEAR 70 68 93 CALM 29.98S  
SYLVANIA SUNNY 72 70 94 CALM 29.99S  
CLAXTON CLOUDY 73 72 96 CALM 29.98S  
MILLEN FAIR 68 68 98 W3 29.98S  
METTER FAIR 70 69 97 CALM 29.98F  
REIDSVILLE NOT AVBL  
   
..CSRA, CENTRAL AND FAR SOUTHEAST GEORGIA
 
 
 
CITY SKY/WX TMP DP RH WIND PRES REMARKS
 
THOMSON CLEAR 63 N/A N/A CALM 30.00S  
AUGUSTA-BUSH CLEAR 68 66 93 CALM 29.96S  
AUGUSTA-DANIEL CLEAR 73 61 65 NW7 29.98S  
SWAINSBORO FAIR 70 68 94 CALM 30.00F  
VIDALIA CLEAR 72 68 88 CALM 29.99F  
EASTMAN FAIR 68 67 97 CALM 30.02F  
HAZLEHURST N/A 75 70 85 CALM 29.98F  
ALMA PTCLDY 72 70 93 CALM 29.98F  
WAYCROSS CLEAR 72 67 84 SW3 29.97F  
JESUP CLOUDY 75 70 83 S3 29.97F  
BAXLEY MOCLDY 72 72 100 CALM 29.98F  
BRUNSWICK CLOUDY 74 72 91 SW10 29.95F  
SAINT SIMONS MOCLDY 76 75 97 W6 29.96F  
 

 
 
SCZ027-028-034-036>038-045-046-048>050-GAZ119-141-310900-   
..LAKE AND SUPPLEMENTAL COASTAL OBSERVATIONS
 
 
 
STATION/POSITION TIME TEMP WIND PRES WAVE SWELL
 
AIR SEA DIR/SP/G HT/PER HT/PER/DIR  
(UTC) (F) (DEG/KT/KT) (MB) (FT/S) (FT/S/D)  
WINYAH BAY 0645 73 270/ 5 1013.0  
LAKE MURRAY 0720 72 CALM / 1 N/A  
CHRLSTN HARBOR 0730 77 80 270/ 2/ 4 1014.3F  
ACE BASIN NERRS 0645 74 CALM 1015.0  
FORT PULASKI 0730 77 79 300/ 7/ 7 1014.9F  
SAPELO ISLAND 0700 77 220/ 8 1015.0  
 

 
 
ANZ835-935-AMZ111-154-330-350-352-354-370-450-454-472-310900-   
..C-MAN AND BUOY OBSERVATIONS
 
 
 
STATION/POSITION TIME TEMP WIND PRES WAVE SWELL
 
AIR SEA DIR/SP/G HT/PER HT/PER/DIR  
(UTC) (F) (DEG/KT/KT) (MB) (FT/S) (FT/S/D)  
BUOY 41004 0750 76 1013.5F 3/ 8 2/120/ 8  
BUOY 41008 0750 79 78 240/ 12/ 14 1013.8F 3/ 8 2/120/ 8  
FOLLY BEACH CMAN 0700 78 230/ 6/ 9 1014.7F  
CAPERS NEARSHORE 0708 78 78 250/ 10/ 14 1014.0F  
FRIPP NEARSHORE NOT AVBL  
 
 
STATION/POSITION TIME TEMP WIND PRES WAVE SWELL
 
AIR SEA DIR/SP/G HT/PER HT/PER/DIR  
(UTC) (F) (DEG/KT/KT) (MB) (FT/S) (FT/S/D)  
5E ST. MARYS GA 0800 78 N/A 3/ 8  
FRYING PAN BUOY 0750 76 78 270/ 14/ 16 1012.4F 3/ 8 2/130/ 8  
BUOY 41025 0750 74 79 310/ 8/ 12 1012.3R 4/ 8 3/120/ 8  
CAPE LOOKOUT NC 0700 74 290/ 7/ 9 1013.0F  
BUOY 41002 0800 76 79 210/ 14/ 21 1014.0  
BUOY 41010 0750 80 210/ 12/ 16 N/A 4/ 8 3/ 90/ 8  
ST AUGUSTINE FL 0800 73 76 1015.4F  
 

 
 
 
CLICK HERE TO GO TO PREVIOUS BULLETINS.

The Nexlab SC Page
The Nexlab GA Page Main Text Page